Wind_Speed
24 24 24 23 23 22 22 22 22 22 22 22 22 22 22 21 21 21 21 21 21 21 21 21 20 20 20 20 21 22 22 23 25 26 27 29 30 32 33 35 36 37 38 39 40 42 45 47 48 49 49 48 47 45 44 43 42 42 42 42 43 44 44 45 46 46 46 47 47 48 48 48 48 48 48 47 47 47 46 46 46 46 45 45 46 46
25 25 24 24 23 23 23 23 22 22 22 22 22 22 22 22 21 21 21 21 22 21 21 21 20 20 20 21 21 22 23 24 25 27 28 30 31 33 34 36 37 38 39 40 42 44 46 48 49 49 48 46 45 43 42 41 41 41 42 42 43 44 44 45 45 46 46 46 47 47 47 47 47 47 47 46 46 46 45 45 45 45 44 44 44 44
26 25 25 24 24 23 23 23 23 23 23 23 23 22 22 22 22 22 22 22 22 22 21 21 21 21 21 21 22 23 24 25 26 28 29 30 32 34 35 37 38 39 40 42 44 46 47 49 49 48 46 44 42 41 40 40 40 41 42 42 43 44 44 45 45 45 46 46 46 47 47 47 47 46 46 46 45 45 44 44 44 43 43 43 43 42
26 26 25 25 24 24 24 24 24 24 24 23 23 22 22 22 22 22 22 22 22 22 22 21 21 21 22 22 23 24 25 26 27 29 30 31 33 35 36 38 39 40 41 43 45 47 48 48 47 45 43 42 40 40 39 40 40 41 42 42 43 44 44 44 45 45 45 46 46 46 46 46 46 46 45 45 44 44 43 43 42 42 41 41 41 41
27 26 26 25 24 24 24 25 25 24 24 23 23 22 22 22 22 22 22 23 23 22 22 22 21 22 22 23 23 25 26 27 28 29 31 32 34 36 37 39 40 41 42 44 46 47 48 47 45 43 41 40 39 39 39 40 40 41 42 42 43 43 44 44 45 45 46 46 46 46 46 46 45 45 44 43 43 42 42 41 41 40 40 39 39 39
27 26 26 25 25 25 25 25 25 24 24 23 23 22 22 22 22 22 23 23 23 22 22 22 22 22 22 23 24 25 27 28 29 30 32 33 35 37 38 39 40 42 44 45 47 47 46 45 42 40 39 38 38 38 39 40 40 41 42 42 43 43 43 44 45 45 46 46 46 46 46 45 44 44 43 42 42 41 40 40 39 39 38 38 38 38
27 26 26 26 26 26 25 25 25 24 23 23 22 22 22 22 22 23 23 23 23 23 22 22 22 22 23 24 25 26 28 29 30 31 33 34 36 38 39 40 41 43 45 46 47 46 44 42 40 38 38 37 38 38 39 40 40 41 41 42 42 43 43 44 45 46 46 46 46 45 45 44 43 42 42 41 40 40 39 38 38 37 37 37 37 37
27 26 26 26 26 26 26 25 24 24 23 23 22 22 22 22 23 23 23 23 23 22 22 22 22 22 23 24 26 27 28 30 31 32 34 35 37 38 39 41 42 44 45 46 46 44 42 40 38 37 37 37 37 38 39 39 40 40 41 42 42 43 44 45 46 46 46 46 45 44 44 43 42 41 41 40 39 39 38 37 37 36 36 36 36 36
27 27 27 27 26 26 25 25 24 24 23 23 23 22 22 23 23 23 23 23 23 22 22 21 22 22 24 25 27 28 30 31 32 33 35 36 37 39 40 41 43 45 46 45 44 42 39 37 36 36 36 36 37 38 38 39 39 40 41 42 43 44 44 45 46 46 45 45 44 43 42 42 41 40 39 39 38 37 37 36 36 35 35 35 35 35
28 28 27 27 26 25 25 24 24 24 23 23 22 22 22 23 23 23 23 23 22 22 21 21 22 23 24 26 28 29 30 32 33 34 36 37 38 39 41 42 44 45 45 43 41 39 37 36 35 35 35 36 36 37 38 38 39 40 41 42 43 44 45 45 45 45 44 44 43 42 41 40 40 39 39 38 37 36 36 35 35 35 35 35 35 35
28 28 28 27 26 25 24 24 24 24 23 23 22 22 22 23 23 23 22 22 22 21 21 21 22 23 24 26 28 30 31 32 33 35 36 37 38 40 41 43 44 44 43 41 39 37 35 35 34 34 35 35 36 36 37 38 39 40 41 42 43 44 45 45 45 44 43 42 42 41 40 39 39 38 38 37 36 36 35 35 34 34 34 35 35 35
28 28 28 27 26 25 24 24 24 24 23 22 22 22 22 23 23 22 22 21 21 21 21 22 23 24 25 27 29 31 32 32 33 35 36 38 39 41 42 43 44 43 41 38 36 34 34 34 34 34 34 35 35 36 37 38 39 40 41 43 44 44 44 44 44 43 42 41 41 40 39 39 38 37 36 36 35 35 34 34 34 34 34 35 35 36
29 28 28 26 25 24 24 24 24 23 23 22 22 22 22 23 23 22 21 21 21 21 22 22 23 25 27 28 30 31 32 32 34 35 36 38 40 41 42 43 42 40 38 36 34 33 32 33 33 33 33 34 35 35 36 38 39 40 42 43 43 44 44 43 43 42 41 40 40 39 38 38 37 36 35 35 34 34 34 34 34 34 34 35 35 36
29 28 27 26 25 24 24 23 23 23 22 22 22 22 23 23 22 21 21 20 21 21 22 23 24 26 27 29 30 31 32 32 34 35 37 39 40 42 42 41 39 37 35 33 32 32 31 32 32 32 33 33 34 35 36 38 39 41 42 43 43 43 43 42 41 41 40 39 39 38 37 36 36 35 34 34 33 33 33 33 34 34 35 35 35 35
29 27 26 25 24 23 23 23 22 22 22 22 22 23 23 22 21 21 20 20 21 22 22 23 24 26 28 29 31 32 32 33 34 36 38 39 41 42 41 39 36 34 32 31 31 31 31 31 31 32 32 33 34 35 36 38 39 41 42 42 42 42 42 41 40 40 39 38 37 37 36 35 34 34 33 33 33 33 33 33 34 34 35 35 35 34
27 26 25 24 23 23 23 22 22 22 22 22 22 22 22 21 21 20 20 20 21 21 22 22 24 26 28 30 31 32 33 33 35 36 38 39 40 41 39 36 33 31 30 29 29 30 30 30 30 31 31 32 34 35 36 38 39 41 41 42 42 41 41 40 39 38 38 37 36 35 34 34 33 32 32 32 32 32 33 33 34 34 34 34 34 33
26 25 24 23 22 22 23 22 22 22 22 22 22 22 21 21 20 20 20 21 21 21 21 22 23 25 27 29 31 32 33 34 35 37 38 39 39 38 36 33 30 28 28 28 28 28 29 29 29 30 31 32 34 35 37 38 39 40 41 41 41 40 40 39 38 37 36 35 35 34 33 32 32 31 31 31 32 32 33 33 34 34 34 33 32 31
25 24 23 22 22 22 22 22 22 22 22 22 22 21 21 21 21 20 20 20 20 20 21 22 24 25 27 29 31 33 34 34 35 37 38 37 37 36 33 30 27 26 27 27 27 27 28 28 29 30 31 32 34 35 37 38 39 40 41 41 40 40 39 38 37 36 35 34 33 32 32 31 31 31 31 31 32 32 33 33 33 33 33 32 31 29
24 23 22 22 22 22 22 22 22 22 21 21 21 21 20 20 20 20 20 19 19 20 21 22 24 26 28 29 31 32 34 34 35 36 36 35 34 32 30 27 25 25 26 26 26 27 27 28 28 30 31 32 34 36 37 38 39 40 40 40 39 39 38 37 36 34 33 32 32 31 30 30 30 30 30 31 31 32 32 33 33 32 31 30 29 28
23 23 22 22 22 22 22 22 21 21 21 20 20 20 20 20 20 20 19 19 20 21 22 24 25 27 28 29 31 32 34 34 35 35 34 33 31 29 26 24 24 24 25 25 25 26 26 27 28 29 31 33 34 36 37 38 39 40 40 39 39 38 37 35 34 33 32 31 30 30 29 29 29 29 30 31 31 32 32 32 32 31 30 29 27 26
22 22 21 21 21 21 21 21 21 20 20 20 20 20 20 20 20 19 19 19 20 22 23 24 26 27 28 29 30 32 34 34 33 32 31 29 27 25 24 23 23 23 24 24 24 25 26 27 28 30 31 33 35 36 37 38 39 39 39 39 38 37 36 34 33 31 30 30 29 29 28 28 29 29 30 30 31 31 31 31 30 29 28 27 27 26
21 21 20 20 20 20 20 20 20 20 19 19 19 19 20 19 19 19 19 20 21 22 24 25 26 27 28 30 31 32 33 33 31 30 28 25 24 23 22 22 22 22 23 23 24 25 26 27 28 30 32 33 35 36 37 38 39 39 39 38 37 36 34 33 31 30 29 28 28 28 28 28 28 29 30 30 30 30 30 30 29 28 27 27 26 26
21 20 20 19 20 20 21 20 20 19 19 19 19 19 19 19 18 18 19 21 22 23 25 26 27 28 29 30 31 32 32 32 30 27 24 22 21 21 21 21 21 21 22 23 24 25 26 27 28 30 32 34 35 36 37 38 39 39 38 37 36 35 33 31 30 28 28 27 27 27 27 28 28 29 29 29 29 29 29 28 28 27 27 26 26 25
19 19 19 19 20 20 20 20 19 19 19 19 19 19 18 18 19 19 21 22 23 24 25 26 27 28 29 30 31 31 30 29 27 24 21 20 20 20 20 20 21 21 21 22 23 24 26 27 29 30 32 34 35 36 37 38 38 38 38 36 35 33 31 30 28 27 27 26 26 26 27 27 28 28 29 29 28 28 28 27 27 26 26 26 26 25
19 19 19 20 20 20 20 19 19 19 19 18 18 18 18 19 20 21 23 24 24 25 25 26 26 27 29 30 30 29 28 26 23 20 19 19 19 19 19 19 20 20 21 22 23 24 26 28 29 31 32 34 35 37 37 38 38 38 37 35 34 32 30 28 27 26 26 26 26 26 27 27 28 28 28 27 27 27 26 26 26 26 26 26 26 26
19 20 20 21 21 20 20 19 19 18 18 18 18 18 19 20 22 23 24 24 24 24 25 25 26 28 29 29 28 27 25 23 20 18 18 18 18 18 18 19 19 20 21 22 23 24 26 28 30 31 33 34 36 37 37 38 37 37 36 34 32 30 28 27 26 25 25 25 26 26 27 27 27 27 27 26 26 26 25 25 25 25 25 25 26 26
21 21 21 21 20 20 19 18 18 17 17 18 19 20 22 23 24 24 24 24 24 24 24 25 26 28 28 28 26 24 22 19 18 17 17 18 18 18 18 18 19 19 21 22 23 24 26 28 30 31 33 34 35 37 37 37 37 36 34 32 30 28 26 25 25 24 25 25 26 26 27 27 27 26 26 25 25 24 24 24 25 25 25 25 25 25
21 21 21 20 19 18 17 17 17 17 18 20 21 23 25 25 25 24 24 23 23 23 24 25 26 27 27 25 23 20 18 16 16 17 17 17 17 17 18 18 18 19 20 22 23 25 27 29 30 32 33 34 35 36 37 37 36 34 32 30 28 27 25 24 24 24 24 25 26 26 26 26 26 25 24 24 24 24 24 24 24 24 25 25 25 25
20 20 19 18 17 16 16 16 18 19 21 23 25 26 27 26 24 23 23 22 22 23 24 25 26 26 25 22 19 16 15 15 16 16 17 16 16 16 17 18 18 19 20 22 24 26 27 28 30 32 33 35 35 36 36 36 34 33 30 28 26 25 24 24 24 24 24 25 26 26 26 25 24 24 23 23 23 23 23 23 24 24 24 24 24 24
18 18 17 16 15 16 17 19 21 23 25 27 28 28 27 25 23 22 21 21 22 23 24 25 25 24 22 18 15 13 14 14 15 16 16 16 16 16 17 18 18 19 20 22 24 26 27 28 30 31 33 35 35 35 35 34 33 31 28 26 24 23 23 23 23 24 25 25 26 25 25 24 23 22 22 22 22 22 23 23 23 24 24 24 23 23
17 16 16 16 17 18 19 21 24 26 28 29 29 27 25 22 21 20 21 21 22 23 24 25 24 21 18 13 12 13 14 15 15 16 16 15 15 16 17 17 18 19 20 22 24 26 28 29 30 31 32 34 35 35 34 33 31 29 27 25 23 22 22 23 23 24 25 25 25 24 24 23 22 21 21 21 22 22 22 23 23 23 23 23 23 22
17 17 18 19 20 21 22 24 26 28 29 29 27 24 22 20 20 20 21 22 23 24 24 23 21 17 13 11 11 14 15 15 15 15 15 15 15 16 16 17 19 20 21 21 23 25 27 29 30 31 32 33 34 34 33 31 29 27 25 23 22 22 22 22 23 24 25 25 24 23 22 21 21 21 21 21 22 22 22 22 22 22 22 22 22 22
19 20 21 22 23 24 26 27 29 30 29 27 24 21 20 20 20 20 21 22 23 24 23 21 17 13 10 10 12 14 15 15 15 15 15 14 15 16 16 17 19 20 21 22 23 25 26 28 30 31 32 32 32 32 31 30 27 25 23 22 22 22 22 23 23 24 24 24 23 22 21 20 20 20 21 21 21 22 22 22 22 22 21 21 21 21
22 23 24 24 26 27 29 31 31 30 27 24 21 20 20 20 20 20 21 23 24 23 21 17 12 10 10 11 13 14 15 15 15 14 14 14 14 15 16 17 19 20 21 22 24 25 26 28 29 31 32 32 31 30 29 28 26 24 22 21 21 22 23 23 24 24 23 22 21 20 19 19 19 20 20 21 21 21 21 21 21 21 21 21 21 21
24 25 25 26 28 30 32 32 31 28 24 21 20 20 20 20 20 21 22 23 23 22 18 13 10 9 10 12 14 14 15 14 14 14 13 13 14 15 16 17 18 20 21 22 24 25 27 28 29 30 31 31 30 29 27 26 24 22 21 20 21 21 22 23 23 23 22 21 19 19 18 18 19 19 20 20 20 20 20 20 20 20 20 20 20 21
25 25 26 27 29 31 32 31 28 24 21 21 20 20 20 20 21 22 23 23 22 19 14 11 9 9 11 12 14 14 14 14 13 13 13 13 14 15 16 17 18 19 21 22 23 25 26 27 28 29 29 29 28 27 26 24 23 21 20 21 21 22 22 22 22 21 20 19 18 18 17 18 18 19 19 20 20 20 19 19 19 20 20 20 20 20
25 26 28 29 31 31 30 27 23 22 21 21 21 21 20 21 22 23 23 22 20 16 12 9 9 10 11 13 13 13 13 13 13 12 13 13 14 15 16 17 18 19 20 22 23 24 26 27 28 29 29 28 27 26 25 24 22 21 20 21 21 22 22 22 21 20 19 18 17 17 17 18 19 19 19 19 19 19 19 19 19 19 19 20 20 20
27 29 30 31 30 28 25 23 22 22 22 22 22 21 21 22 22 23 22 20 17 13 10 9 10 11 13 13 13 13 12 12 11 12 12 13 14 15 16 17 18 19 20 21 23 24 26 26 27 28 28 27 26 25 24 23 22 21 21 21 21 21 21 21 20 19 18 17 17 17 17 18 19 19 19 19 19 19 19 19 19 19 19 19 20 20
30 31 31 30 28 25 23 22 23 23 23 23 22 22 22 22 23 22 21 18 15 11 9 9 10 12 13 13 12 12 11 11 11 11 12 13 14 15 16 17 18 19 20 21 22 24 25 26 26 27 27 26 26 25 23 22 21 21 21 21 21 21 20 19 18 17 16 16 17 17 18 18 19 19 19 19 18 18 18 18 18 19 19 19 20 20
31 31 30 28 25 23 23 23 24 24 23 23 22 22 22 23 23 22 20 16 12 10 9 10 11 12 13 12 12 11 10 10 10 11 12 13 13 14 15 16 17 19 20 21 22 24 25 26 26 26 26 25 24 23 22 21 21 21 21 21 20 20 19 18 17 16 16 16 17 17 18 18 18 18 18 18 18 18 18 18 18 19 19 19 20 20
30 29 27 24 23 22 23 24 24 24 23 23 23 23 23 23 22 20 17 13 10 9 10 11 12 12 12 12 11 10 10 10 10 11 12 12 13 14 14 15 17 18 19 21 22 23 24 25 25 25 25 24 23 22 21 20 20 20 20 20 19 18 17 17 16 16 16 16 17 17 17 18 18 17 17 17 17 17 17 18 18 19 19 19 20 20
28 25 23 21 21 22 23 24 24 24 23 23 23 23 23 23 21 17 13 10 9 10 11 12 12 12 11 10 10 9 9 9 10 10 11 12 13 13 14 15 16 17 19 20 22 23 23 24 24 24 23 22 21 20 20 19 19 19 19 19 18 18 17 16 16 16 16 16 17 17 17 17 17 17 16 16 17 17 18 18 19 19 19 19 19 19
23 21 20 20 21 22 23 23 23 23 23 23 23 23 23 21 18 14 10 9 10 11 12 12 12 11 10 9 8 8 8 9 10 10 11 12 12 13 14 14 16 17 18 20 21 22 23 23 22 22 22 22 21 19 19 19 19 19 18 18 18 17 16 16 16 16 16 16 16 16 16 16 16 16 16 16 17 17 18 18 19 19 19 19 19 18
19 18 18 19 21 22 22 23 23 23 23 23 23 22 21 18 14 11 10 10 11 11 12 12 11 10 9 8 8 8 8 9 10 10 11 11 12 12 13 14 15 16 18 19 21 22 22 22 21 21 21 20 20 19 19 19 18 18 18 17 17 16 16 16 16 16 16 16 16 16 16 16 16 16 16 17 17 18 18 18 19 19 19 19 18 17
18 18 19 20 21 22 22 23 23 23 23 23 22 20 18 15 12 10 10 11 12 12 12 11 10 9 8 7 7 7 7 8 9 10 10 11 11 12 12 13 15 16 17 18 20 20 20 20 20 19 19 19 18 18 18 18 18 18 17 17 16 16 15 15 16 16 16 15 15 15 15 15 16 16 16 17 17 17 18 18 18 18 18 18 17 16
19 19 20 21 22 22 23 23 23 23 23 21 20 18 15 12 11 11 11 12 12 12 11 10 9 7 6 6 6 7 7 8 9 10 10 10 11 11 12 13 14 16 17 18 19 19 19 19 18 18 18 17 17 17 17 18 17 17 17 16 16 15 15 15 15 15 15 15 15 15 15 15 16 16 17 17 17 17 18 18 18 18 18 17 16 15
21 20 21 22 23 24 24 24 23 23 22 20 18 15 13 11 11 11 12 12 12 11 10 9 8 6 5 5 6 6 7 8 8 9 9 10 10 11 11 12 14 15 17 18 18 19 18 18 18 17 17 16 16 17 17 17 17 16 16 16 16 15 15 15 15 15 15 15 15 15 15 16 16 16 17 17 17 17 17 17 17 17 17 16 16 14
22 22 22 24 25 26 25 24 23 22 20 18 16 13 12 12 12 12 12 12 12 11 9 8 6 5 4 4 5 6 7 7 8 8 8 9 10 10 11 12 13 15 16 17 18 18 17 17 17 17 17 17 16 16 16 16 16 16 16 16 15 15 15 15 14 14 14 15 15 15 15 16 16 17 17 17 17 17 17 17 17 17 16 16 15 14
22 23 24 26 27 26 24 23 21 20 18 16 14 12 12 12 13 13 13 12 11 9 8 6 5 4 3 4 4 5 6 7 7 8 8 8 9 10 10 12 13 14 16 16 17 17 17 16 16 17 18 17 17 16 16 15 15 15 15 15 15 14 14 14 14 14 14 14 15 15 16 16 17 17 17 17 17 17 17 17 17 16 16 15 14 13
22 24 26 27 27 25 23 21 19 17 16 14 13 12 13 13 13 13 12 11 10 8 6 5 4 3 3 3 4 5 6 6 7 7 7 8 8 9 10 11 13 14 15 16 16 16 16 15 15 16 17 18 17 16 15 15 15 14 14 14 14 14 14 13 13 14 14 15 15 16 16 17 17 17 17 17 17 17 17 17 16 16 15 14 14 13
23 25 27 28 26 23 21 19 17 16 14 13 13 13 14 14 13 13 12 10 9 7 5 4 3 3 3 3 4 5 5 6 6 6 7 7 8 9 10 11 12 13 14 15 15 16 16 15 15 15 16 16 16 15 15 14 14 14 14 14 13 13 13 13 13 14 14 15 16 16 17 17 17 17 17 17 17 17 17 16 16 16 15 14 14 13
Wind_Direction
240 238 236 234 233 233 234 236 238 240 243 245 246 248 248 249 250 250 251 251 252 253 255 256 257 260 263 268 273 277 280 283 286 288 289 291 292 294 297 299 301 302 304 305 307 309 311 313 314 314 315 315 315 314 314 314 314 313 313 313 312 312 312 312 312 312 313 313 313 314 314 315 315 316 316 316 317 316 317 316 316 316 316 315 315 315
238 236 234 232 231 232 234 236 238 241 243 245 246 247 248 249 249 250 251 252 253 254 255 256 257 260 265 269 274 278 281 283 285 287 288 290 293 295 298 300 301 303 305 307 309 311 313 314 315 315 315 315 315 314 314 314 313 313 313 313 312 312 312 312 313 313 313 314 314 315 315 316 317 317 317 318 318 318 317 317 317 317 317 317 316 316
236 234 232 231 230 230 232 236 238 240 242 244 245 247 248 248 249 250 251 252 253 253 254 255 258 262 266 271 275 278 281 283 284 286 288 291 294 297 299 301 302 304 306 308 310 312 314 315 315 315 315 315 314 314 314 313 313 313 313 313 313 313 313 313 314 314 314 315 316 317 317 318 318 319 319 319 319 318 318 318 318 318 318 317 317 317
234 231 229 228 228 229 231 234 237 240 241 243 245 246 247 248 249 250 251 252 253 253 254 256 259 263 267 272 275 278 280 282 284 287 290 293 296 298 300 301 303 305 308 310 312 313 315 315 316 316 315 314 314 313 313 313 313 313 313 313 313 313 314 314 315 315 316 317 318 319 319 320 320 320 320 320 319 319 319 319 318 318 318 318 318 318
232 229 227 226 226 228 231 234 237 239 241 243 244 245 246 247 248 250 251 252 253 254 255 257 261 265 269 272 275 278 280 283 286 289 293 296 298 300 301 303 305 307 309 311 313 314 315 316 316 315 314 313 313 313 313 313 313 314 314 314 314 314 315 316 317 317 318 319 320 321 321 321 321 321 320 320 320 320 319 319 319 319 319 319 319 319
231 228 226 224 225 227 230 234 236 239 241 242 244 245 246 247 248 249 251 252 253 255 257 259 263 266 270 273 276 279 281 285 288 292 295 297 299 301 302 304 306 309 311 312 314 315 316 316 315 314 313 313 312 313 313 314 314 314 314 315 315 316 317 318 319 319 320 321 321 322 322 322 321 321 321 320 320 320 320 319 319 319 319 320 320 319
230 227 224 223 225 227 230 234 237 239 241 243 244 245 246 247 248 249 251 252 254 256 258 261 264 268 271 274 277 280 283 287 290 294 297 299 300 301 303 305 307 310 312 313 315 315 316 315 314 313 312 312 313 313 314 315 315 315 315 315 316 317 319 320 320 321 322 322 322 322 322 322 322 321 321 321 320 320 320 320 320 320 320 320 321 321
228 226 224 223 224 227 231 234 237 240 242 243 244 245 246 247 248 250 251 252 254 257 259 262 266 270 273 276 279 282 285 289 292 295 297 299 301 302 304 306 309 311 313 314 315 315 315 314 313 312 312 312 313 314 315 315 315 315 316 317 318 319 320 321 322 322 323 323 323 323 323 322 322 321 321 321 321 321 321 321 321 321 321 322 322 322
227 225 224 224 225 228 231 235 238 240 242 243 244 245 246 247 249 250 252 253 255 258 261 264 268 272 275 278 281 284 287 291 294 297 299 300 301 303 305 307 310 312 314 315 315 315 314 312 311 311 312 313 314 315 315 315 316 316 317 319 320 321 322 322 323 323 323 323 323 323 323 322 322 322 322 322 321 322 322 322 322 323 323 323 323 323
227 226 225 225 226 229 232 236 239 241 242 243 243 244 246 248 250 251 253 255 257 260 263 266 270 273 276 279 282 286 290 293 296 298 300 301 302 304 307 309 311 313 314 315 315 313 312 311 311 311 313 314 315 315 316 316 317 318 319 320 321 322 322 323 323 323 323 323 323 323 323 323 322 322 322 322 322 323 323 323 323 324 324 324 324 324
227 227 226 226 228 230 233 236 239 242 243 243 244 244 246 248 250 252 255 257 259 262 265 268 271 274 278 281 284 288 291 295 297 299 300 302 304 306 308 310 312 314 314 314 313 312 311 310 311 312 314 315 315 316 316 317 318 320 321 322 322 323 323 323 323 324 324 324 324 323 323 323 323 323 323 324 324 324 324 324 325 325 325 325 325 325
228 228 228 228 230 232 234 237 240 242 244 245 245 246 247 249 251 253 255 257 260 263 266 269 272 275 280 284 287 290 293 296 298 300 301 303 305 307 309 311 313 314 314 313 311 310 310 310 312 313 315 315 316 317 318 319 320 321 322 322 323 323 323 324 324 324 324 324 324 324 324 324 324 324 324 325 325 325 325 325 325 326 326 326 326 326
229 229 229 230 232 235 237 239 242 244 245 246 248 249 250 250 251 253 254 256 259 262 265 269 274 278 282 285 288 292 295 297 299 300 302 304 306 308 310 312 313 313 312 311 309 309 310 311 313 314 315 316 317 318 319 321 321 322 323 323 323 324 324 324 324 324 324 325 325 325 325 325 325 325 325 325 325 326 326 326 326 327 327 327 327 327
230 230 231 233 235 238 240 242 243 245 246 247 248 248 249 250 251 252 254 256 259 262 266 271 277 282 285 287 290 293 296 298 300 301 303 305 307 309 310 311 312 311 310 309 308 309 310 312 314 315 316 317 318 320 321 322 322 323 323 324 324 324 324 324 325 325 325 325 325 326 326 326 326 326 326 326 326 326 327 327 327 328 328 328 328 328
231 232 234 236 238 241 243 244 245 246 246 247 247 248 249 250 251 252 254 256 259 263 268 274 280 284 287 290 292 295 297 299 301 303 304 306 307 309 311 311 311 310 309 308 308 309 311 313 314 315 317 318 320 321 322 323 323 324 324 324 325 325 325 325 325 326 326 326 326 326 327 327 327 327 327 327 327 328 328 328 329 329 329 329 329 330
232 234 236 238 241 243 244 245 245 245 246 246 247 248 249 250 250 252 253 256 260 266 272 278 284 287 290 291 293 296 299 301 302 304 306 307 308 309 310 310 309 308 307 307 309 310 312 313 315 316 318 320 321 322 323 324 324 325 325 325 325 325 326 326 326 326 327 327 327 327 327 327 327 327 327 328 328 329 329 329 330 330 330 331 331 332
233 235 237 240 242 243 244 245 245 245 245 246 247 248 248 248 249 251 253 257 263 269 276 282 287 290 292 293 295 297 299 301 303 305 306 308 308 309 309 308 307 306 307 308 309 311 312 314 316 318 320 322 323 324 324 325 325 325 326 326 326 326 327 327 327 327 327 328 328 328 328 328 328 328 329 329 329 330 330 331 331 331 332 332 333 334
233 236 238 240 242 243 244 245 245 245 246 246 247 247 247 248 249 251 255 260 266 273 279 283 287 290 293 295 296 297 299 301 304 305 307 308 308 308 307 306 305 305 306 308 310 311 313 315 318 320 322 323 324 325 325 326 326 326 326 327 327 327 328 328 328 328 328 328 328 329 329 329 329 329 330 330 331 331 332 332 333 333 334 334 335 336
233 235 237 239 241 242 244 244 245 245 245 244 245 245 246 247 249 253 257 263 269 275 280 285 288 290 292 295 296 297 299 302 304 305 306 307 306 306 306 305 304 305 307 309 310 312 315 317 320 321 323 324 325 326 327 327 327 327 327 328 328 328 329 329 329 329 329 329 329 330 330 330 331 331 331 332 332 333 333 334 334 335 336 337 338 339
232 234 236 237 239 241 243 243 243 243 242 242 242 243 245 247 251 255 261 267 273 278 282 286 288 290 292 294 296 298 300 302 304 305 306 306 305 304 304 304 304 306 307 309 311 314 317 319 321 323 324 325 326 327 328 328 328 328 328 329 329 329 330 330 330 330 330 330 331 331 331 331 332 332 333 333 333 334 334 335 336 337 338 339 341 342
230 232 234 236 237 239 240 240 240 240 240 240 241 242 245 249 253 258 264 270 275 280 284 286 288 290 293 295 297 299 301 303 304 305 304 304 303 302 303 304 305 306 308 310 313 316 318 321 322 324 325 327 328 328 329 329 329 329 329 330 330 330 331 331 331 331 331 332 332 332 333 333 333 334 334 334 335 335 336 337 338 339 340 342 343 344
227 229 231 233 235 236 236 236 236 237 238 239 241 243 247 251 256 261 267 272 277 280 284 286 288 290 293 296 298 300 302 303 304 304 303 302 301 301 303 303 305 307 309 312 315 317 320 322 323 325 326 328 329 329 329 329 330 330 330 331 331 332 332 332 332 332 333 333 333 334 334 335 335 335 335 336 336 337 338 339 340 341 343 344 345 346
224 226 228 230 232 233 233 233 234 236 237 239 241 244 248 253 258 263 269 273 277 280 283 285 287 289 292 295 298 301 303 303 303 302 301 298 298 299 302 303 305 307 310 313 316 319 321 323 324 326 328 329 330 330 330 330 330 331 331 332 332 333 333 333 334 334 334 335 335 335 336 336 336 336 336 337 337 338 339 340 342 343 344 346 346 347
221 224 227 230 231 232 232 232 233 235 238 240 243 246 251 255 260 265 269 273 276 279 281 283 286 289 293 297 300 302 302 302 301 300 297 296 296 298 301 303 305 309 312 315 318 320 322 324 326 327 329 330 331 331 331 331 332 332 333 333 334 334 335 335 335 336 336 336 337 337 337 337 337 337 337 338 338 339 341 342 343 345 346 347 347 347
218 222 227 230 231 231 231 231 233 236 239 242 245 250 254 259 263 267 270 273 275 278 280 284 288 292 295 299 301 301 300 299 298 295 293 293 295 298 301 304 307 311 314 316 319 321 323 324 326 329 330 331 332 332 332 332 333 333 334 335 335 336 337 337 337 337 337 338 338 338 339 339 338 338 338 339 340 341 342 344 345 346 347 347 347 347
217 221 226 228 229 229 229 230 233 237 241 244 249 253 257 262 265 269 271 274 276 279 282 287 292 296 298 299 300 299 297 296 294 292 291 292 295 299 301 304 308 312 315 317 320 322 323 325 327 330 331 332 333 333 333 333 334 335 336 336 337 338 338 338 339 339 339 339 339 340 340 340 340 339 339 340 341 342 344 345 346 347 347 347 347 347
216 220 224 226 226 226 227 230 235 240 244 249 253 257 261 264 266 269 271 273 276 280 285 290 295 298 298 298 297 295 294 291 290 289 290 292 296 300 303 306 310 313 315 318 320 323 325 326 328 330 332 333 333 333 334 334 335 336 337 338 339 339 339 340 340 340 340 340 341 341 341 341 340 340 340 341 342 343 345 346 347 347 348 347 347 347
217 220 222 223 223 225 228 234 240 246 251 255 258 261 263 265 266 267 270 273 278 283 289 294 297 297 296 294 292 291 289 287 286 287 290 293 297 300 304 307 311 314 316 318 321 324 326 328 330 331 333 334 334 334 335 335 337 338 339 340 340 341 341 341 341 341 341 342 342 342 342 342 341 341 341 342 343 345 346 347 348 348 348 348 348 349
218 221 222 222 223 228 236 243 249 254 257 260 262 263 264 264 265 267 271 276 282 287 292 295 296 294 292 289 288 286 284 283 284 287 290 293 297 301 304 307 311 314 317 320 322 325 327 329 331 332 334 334 335 335 336 337 338 340 341 342 342 342 341 342 342 342 343 343 343 343 343 342 342 342 342 343 344 346 347 348 348 349 349 349 350 350
222 224 224 225 230 237 245 251 256 259 261 263 263 263 262 263 265 269 275 280 286 290 293 294 292 289 286 285 283 281 279 281 284 286 290 294 298 301 304 308 312 315 319 322 324 326 328 330 332 334 334 335 336 336 337 339 340 342 342 343 343 343 343 343 343 343 344 344 344 344 344 344 343 343 344 344 346 347 348 349 349 350 350 351 352 353
228 228 229 231 236 242 248 252 256 260 262 262 261 261 262 264 269 274 279 284 289 292 292 290 287 283 281 279 275 273 274 278 282 285 289 295 299 302 305 309 313 316 319 322 325 327 329 331 333 334 335 336 337 337 339 340 342 343 344 344 344 344 344 344 344 344 345 346 346 346 346 345 345 345 345 346 347 348 349 350 350 351 352 353 355 356
228 230 232 235 239 243 248 252 255 258 259 259 259 260 263 267 272 277 282 287 290 291 289 285 281 278 275 271 268 269 272 276 280 284 289 295 300 302 306 310 314 317 320 323 326 328 330 332 333 335 336 337 338 339 340 342 343 345 345 345 345 345 345 345 345 346 347 347 347 348 347 347 346 346 347 348 349 350 351 351 351 352 354 356 358 360
228 233 236 239 242 246 249 252 255 256 256 256 258 261 265 269 275 280 286 289 289 287 283 279 275 271 267 264 265 267 271 275 279 284 290 296 300 304 307 311 315 318 322 325 328 330 332 333 335 336 337 338 339 341 342 343 345 347 347 347 347 346 347 347 347 348 349 349 350 349 349 348 348 348 348 349 350 351 352 353 354 355 357 359 2 3
232 236 239 242 246 250 252 254 254 254 254 255 258 262 267 271 277 283 287 287 285 282 277 272 266 261 258 260 262 266 270 275 280 285 291 297 301 305 309 313 317 320 323 327 330 332 333 335 336 337 338 339 341 342 344 345 346 348 349 350 349 349 348 348 349 350 351 352 352 352 351 350 350 349 350 351 352 353 354 355 356 358 0 3 5 6
234 238 242 245 249 252 253 253 252 252 253 255 259 263 268 274 280 284 285 283 279 275 270 264 256 252 253 256 260 265 270 276 281 287 293 299 303 307 310 314 318 321 325 328 330 333 334 336 337 339 340 341 342 343 345 347 348 349 351 351 351 350 350 350 351 351 352 354 354 354 353 352 351 351 351 352 354 355 357 358 360 2 4 6 7 8
235 239 243 247 250 251 251 250 250 250 253 257 261 265 270 276 280 281 280 277 273 268 260 251 245 246 251 256 261 265 271 276 282 288 294 300 304 308 312 315 319 323 326 329 332 334 336 337 339 340 341 343 344 345 346 348 351 353 354 353 353 352 352 353 354 354 355 356 356 355 354 354 353 353 354 355 357 358 360 2 4 6 7 8 9 10
235 240 245 249 250 250 249 248 248 251 255 259 263 267 273 277 278 277 275 271 266 259 250 240 236 241 249 256 261 267 271 277 283 289 294 299 304 308 313 317 321 325 328 330 333 335 337 339 340 341 343 344 345 347 348 350 353 355 357 356 355 354 354 355 357 358 358 358 358 357 356 355 355 356 357 358 360 1 3 6 8 9 10 11 11 11
241 245 249 251 250 248 247 248 251 255 258 261 265 269 273 275 275 272 269 265 259 251 240 234 235 241 249 257 263 269 273 278 284 289 294 299 305 310 315 319 323 327 330 332 334 337 339 340 342 343 344 345 347 349 350 352 355 357 357 358 357 357 356 358 359 0 1 360 359 358 358 357 357 358 359 1 3 5 7 9 11 12 13 13 13 13
249 252 253 252 249 247 247 251 254 257 260 263 267 270 272 272 271 268 265 259 252 242 233 231 236 244 252 259 265 270 275 280 286 291 296 302 308 313 317 321 325 328 331 334 336 338 340 342 344 345 346 348 349 351 353 355 357 358 359 359 359 359 360 1 2 4 3 2 1 360 359 359 360 1 2 4 6 8 10 12 14 15 16 16 15 14
257 257 254 250 247 247 250 253 255 258 261 264 267 270 271 271 269 266 261 254 244 232 226 229 237 246 254 261 266 271 276 282 288 294 300 306 311 316 320 324 327 330 333 336 338 341 343 344 346 347 348 350 352 353 355 357 359 359 360 1 1 2 3 3 5 6 6 5 3 2 1 1 2 3 5 7 9 10 13 15 16 18 18 18 17 17
256 254 250 247 246 248 251 253 256 259 262 265 268 271 271 270 267 262 254 245 232 222 223 230 240 249 256 262 267 272 278 285 292 299 304 309 314 318 322 326 329 333 335 338 340 343 345 346 348 349 350 352 354 356 358 360 1 1 1 2 3 5 6 7 7 7 7 6 5 4 3 4 5 6 8 10 11 13 16 18 19 20 20 20 19 19
248 246 243 243 245 248 251 254 257 261 264 267 270 272 271 268 263 255 242 227 217 218 225 235 243 251 257 262 267 274 281 289 297 303 308 312 316 320 325 328 332 335 337 340 343 345 347 348 349 350 352 353 355 358 0 2 3 4 4 5 5 7 10 11 11 10 9 7 6 5 5 6 8 9 11 13 14 16 18 20 21 22 22 21 21 22
239 238 240 243 246 250 253 257 260 264 267 270 272 271 268 264 256 244 228 213 211 219 230 238 245 251 256 261 269 277 286 294 300 306 310 314 318 323 327 331 334 337 340 342 345 347 348 349 351 352 352 354 356 360 3 4 6 7 7 8 9 10 12 12 12 12 11 9 8 7 8 9 10 12 14 16 17 19 21 22 23 24 23 23 23 25
236 238 242 246 250 253 257 260 263 267 269 272 271 268 263 256 245 230 213 207 213 223 233 240 247 252 257 263 271 282 290 298 303 307 312 316 321 325 329 333 336 339 342 345 347 349 350 351 352 353 355 357 359 1 4 7 9 11 12 12 13 14 14 13 13 12 11 10 9 9 10 11 13 15 16 18 19 21 22 24 24 25 25 25 26 29
239 243 247 251 255 257 260 263 266 268 270 270 268 261 253 244 230 213 203 206 216 226 235 242 247 253 258 266 276 285 294 301 305 309 312 317 322 327 331 334 338 341 344 347 349 351 352 352 353 355 357 0 3 4 6 8 11 13 15 16 17 18 17 15 14 13 12 12 11 11 12 13 15 17 19 20 21 22 24 25 26 27 27 28 29 33
242 247 252 257 260 262 264 266 267 268 268 266 260 251 241 228 213 201 201 209 220 228 236 242 247 252 259 270 281 291 298 303 306 310 314 319 324 328 332 336 340 343 346 348 350 351 352 353 355 357 1 4 7 9 10 12 14 16 18 20 20 19 18 16 15 14 14 14 14 14 15 16 18 19 20 21 22 24 26 27 29 30 31 31 34 39
243 249 257 262 264 265 266 266 267 267 264 258 250 239 226 211 200 198 204 213 222 230 236 242 247 253 262 275 286 295 301 305 307 311 315 320 325 329 334 338 342 345 347 349 350 352 353 354 356 360 5 9 12 13 14 15 17 20 22 22 22 20 18 17 16 16 16 16 17 17 18 20 21 22 22 23 24 25 28 30 32 34 35 36 40 47
245 252 259 263 265 265 265 265 264 262 256 246 236 223 209 197 195 199 209 217 224 230 235 240 246 254 266 280 291 298 301 305 309 313 316 321 325 330 335 339 343 346 349 350 350 351 353 355 358 2 7 12 16 19 19 19 20 22 24 25 24 22 19 18 18 18 19 20 20 21 22 23 24 24 24 25 26 28 31 33 35 38 40 43 47 55
247 253 259 262 262 262 261 261 258 252 243 231 218 204 194 192 196 204 213 219 225 228 232 235 242 253 268 282 292 297 301 305 310 313 317 321 326 331 336 341 345 348 350 350 351 352 354 357 1 5 9 14 18 22 23 24 25 26 27 26 25 22 20 20 21 22 23 24 24 25 25 26 26 26 27 27 29 31 34 37 39 42 45 49 55 63
249 254 258 258 257 256 255 252 247 238 226 213 199 189 189 193 201 208 215 220 224 228 230 233 240 252 266 280 290 296 302 307 311 314 317 321 327 332 338 342 346 348 349 350 351 353 356 360 5 9 13 16 19 22 24 26 28 30 30 28 26 24 22 23 25 26 28 29 28 28 29 29 28 28 29 30 32 35 38 41 44 46 50 55 62 71
252 255 256 254 251 248 245 240 232 220 207 194 186 185 190 199 207 213 218 221 224 226 228 232 239 249 263 278 289 297 304 309 312 315 318 323 329 334 339 343 346 348 349 350 351 353 356 2 8 13 17 19 21 23 24 27 30 32 33 30 28 27 26 28 30 32 33 33 32 31 31 30 30 30 31 33 35 38 42 45 48 51 54 61 69 77
Height
3031 3031 3032 3033 3033 3034 3034 3035 3036 3036 3036 3037 3037 3037 3037 3037 3038 3038 3038 3038 3039 3039 3039 3039 3039 3039 3039 3038 3038 3037 3037 3036 3035 3035 3034 3034 3033 3032 3031 3030 3029 3028 3027 3025 3024 3022 3020 3018 3016 3014 3012 3009 3007 3004 3002 3000 2998 2996 2994 2992 2990 2988 2986 2984 2982 2979 2977 2975 2972 2970 2968 2965 2963 2960 2957 2955 2952 2950 2947 2945 2942 2940 2938 2935 2933 2930
3029 3029 3030 3030 3031 3032 3033 3033 3034 3034 3034 3034 3035 3035 3035 3035 3036 3036 3036 3037 3037 3037 3037 3037 3037 3037 3037 3036 3036 3035 3034 3034 3033 3033 3032 3032 3031 3030 3029 3028 3027 3026 3024 3023 3021 3019 3017 3015 3013 3011 3009 3006 3004 3002 2999 2998 2996 2994 2992 2990 2988 2986 2984 2982 2979 2977 2975 2972 2970 2967 2965 2963 2960 2957 2954 2952 2949 2947 2944 2942 2940 2937 2935 2933 2930 2928
3027 3027 3028 3029 3029 3030 3031 3031 3032 3032 3032 3033 3033 3033 3034 3034 3034 3034 3034 3035 3035 3035 3035 3035 3035 3035 3035 3034 3034 3033 3033 3032 3031 3031 3030 3030 3029 3028 3027 3026 3025 3023 3022 3020 3019 3017 3015 3013 3010 3008 3006 3004 3001 2999 2997 2995 2994 2992 2990 2988 2986 2984 2981 2979 2977 2974 2972 2970 2967 2965 2962 2960 2957 2954 2952 2949 2947 2944 2942 2940 2937 2935 2933 2930 2928 2926
3024 3025 3026 3027 3028 3028 3029 3029 3030 3030 3030 3031 3031 3031 3032 3032 3033 3033 3033 3033 3033 3033 3034 3034 3034 3033 3033 3032 3032 3031 3030 3030 3029 3029 3029 3028 3027 3026 3025 3024 3022 3021 3019 3018 3016 3014 3012 3010 3008 3005 3003 3001 2999 2997 2995 2993 2991 2989 2988 2985 2984 2981 2979 2977 2974 2972 2969 2967 2964 2962 2959 2957 2954 2952 2949 2947 2944 2942 2939 2937 2935 2933 2930 2928 2926 2924
3023 3023 3024 3025 3026 3026 3027 3028 3028 3028 3028 3029 3029 3029 3030 3030 3031 3031 3031 3031 3031 3032 3032 3032 3032 3031 3031 3030 3029 3029 3029 3028 3028 3027 3027 3026 3025 3024 3023 3021 3020 3019 3017 3015 3013 3011 3009 3007 3005 3003 3000 2999 2996 2995 2993 2991 2989 2987 2985 2983 2981 2979 2977 2974 2972 2969 2967 2964 2962 2959 2957 2954 2951 2949 2947 2944 2942 2939 2937 2935 2933 2930 2928 2926 2924 2921
3020 3021 3022 3023 3024 3024 3025 3025 3025 3026 3026 3027 3027 3028 3028 3029 3029 3029 3029 3030 3030 3030 3030 3030 3030 3029 3029 3028 3027 3027 3027 3026 3026 3025 3024 3024 3023 3022 3020 3019 3018 3016 3014 3013 3011 3009 3007 3004 3002 3000 2998 2996 2994 2993 2991 2989 2987 2985 2983 2981 2979 2976 2974 2972 2969 2966 2964 2961 2959 2956 2954 2951 2949 2946 2944 2942 2939 2937 2935 2933 2931 2929 2926 2924 2922 2919
3019 3019 3020 3021 3022 3023 3023 3023 3024 3024 3024 3025 3025 3026 3026 3027 3027 3028 3028 3028 3028 3028 3028 3028 3028 3027 3026 3026 3025 3025 3024 3024 3024 3023 3023 3022 3020 3019 3018 3017 3015 3014 3012 3010 3008 3006 3004 3002 3000 2998 2996 2994 2992 2990 2989 2987 2985 2983 2981 2979 2976 2974 2971 2969 2966 2964 2961 2959 2956 2954 2952 2949 2947 2944 2942 2939 2937 2935 2933 2931 2929 2926 2924 2922 2920 2918
3016 3017 3019 3019 3020 3021 3021 3021 3022 3022 3023 3023 3023 3024 3024 3025 3025 3026 3026 3026 3027 3027 3027 3026 3026 3025 3024 3024 3023 3023 3023 3022 3022 3021 3020 3019 3018 3017 3016 3014 3013 3011 3009 3008 3006 3004 3001 2999 2997 2995 2994 2992 2990 2989 2987 2985 2983 2981 2979 2976 2974 2971 2969 2966 2964 2961 2959 2957 2954 2952 2949 2947 2944 2942 2939 2937 2935 2933 2931 2929 2927 2924 2923 2920 2918 2916
3014 3015 3016 3017 3018 3019 3019 3019 3020 3020 3021 3021 3021 3022 3022 3023 3024 3024 3024 3024 3025 3025 3025 3024 3024 3023 3022 3021 3021 3021 3021 3020 3020 3019 3018 3017 3016 3014 3014 3012 3010 3009 3007 3005 3003 3001 2999 2997 2995 2993 2992 2990 2988 2987 2985 2983 2981 2979 2976 2974 2971 2969 2967 2964 2962 2959 2957 2954 2952 2949 2947 2945 2942 2940 2938 2935 2933 2931 2929 2927 2925 2923 2921 2919 2917 2914
3012 3014 3014 3015 3016 3016 3017 3018 3018 3019 3019 3019 3020 3020 3021 3021 3022 3022 3022 3023 3023 3023 3022 3022 3021 3021 3020 3019 3019 3019 3019 3019 3018 3017 3016 3014 3014 3012 3011 3010 3008 3006 3005 3003 3001 2999 2997 2995 2993 2991 2990 2988 2986 2985 2983 2981 2979 2976 2974 2972 2969 2967 2964 2962 2959 2957 2955 2952 2950 2947 2945 2943 2940 2938 2936 2934 2931 2929 2927 2925 2923 2921 2919 2917 2915 2913
3011 3012 3013 3013 3014 3014 3015 3015 3016 3016 3017 3018 3018 3019 3019 3019 3020 3020 3020 3020 3020 3020 3020 3019 3019 3019 3018 3018 3017 3017 3017 3016 3016 3015 3014 3013 3011 3010 3009 3007 3006 3004 3002 3000 2998 2996 2994 2993 2991 2989 2988 2986 2985 2983 2981 2979 2976 2974 2972 2969 2967 2965 2962 2960 2958 2955 2953 2950 2948 2945 2943 2941 2938 2936 2934 2932 2929 2928 2925 2924 2922 2919 2918 2915 2914 2911
3009 3010 3011 3011 3012 3012 3013 3013 3014 3014 3015 3016 3016 3017 3017 3018 3018 3018 3019 3019 3018 3018 3018 3017 3017 3017 3016 3016 3015 3015 3015 3014 3014 3012 3011 3010 3009 3008 3006 3005 3004 3002 3000 2998 2996 2994 2992 2991 2989 2988 2986 2985 2983 2981 2979 2977 2974 2972 2970 2968 2965 2963 2960 2958 2955 2953 2951 2948 2946 2944 2941 2939 2937 2934 2932 2930 2928 2926 2924 2922 2920 2918 2916 2914 2912 2910
3008 3008 3009 3009 3009 3010 3011 3012 3012 3013 3014 3014 3014 3015 3015 3015 3016 3016 3016 3016 3016 3016 3016 3015 3015 3015 3014 3014 3014 3013 3013 3013 3012 3010 3009 3008 3007 3006 3004 3003 3001 3000 2998 2996 2994 2992 2990 2989 2988 2986 2985 2983 2981 2979 2977 2975 2973 2970 2968 2966 2964 2961 2959 2956 2954 2951 2949 2946 2944 2942 2939 2937 2935 2933 2931 2929 2927 2925 2923 2921 2919 2917 2915 2913 2910 2908
3006 3006 3007 3007 3008 3008 3009 3010 3011 3011 3012 3012 3013 3013 3013 3014 3014 3014 3014 3014 3014 3014 3014 3014 3013 3013 3012 3012 3012 3011 3011 3010 3009 3008 3007 3006 3005 3004 3002 3000 2999 2997 2996 2994 2991 2990 2989 2987 2986 2984 2983 2981 2979 2977 2975 2973 2971 2969 2966 2964 2962 2959 2957 2954 2952 2949 2947 2944 2942 2940 2938 2935 2933 2931 2929 2927 2925 2924 2922 2919 2918 2915 2914 2911 2909 2907
3004 3004 3005 3005 3006 3007 3008 3009 3009 3010 3010 3010 3011 3011 3012 3012 3012 3012 3012 3012 3012 3012 3012 3011 3011 3011 3010 3010 3009 3009 3009 3008 3007 3006 3005 3004 3002 3001 3000 2998 2997 2995 2994 2992 2989 2988 2987 2986 2984 2983 2981 2979 2978 2976 2974 2971 2969 2967 2965 2962 2960 2958 2955 2953 2950 2948 2945 2943 2940 2938 2936 2934 2932 2930 2928 2926 2924 2922 2920 2919 2916 2914 2912 2910 2908 2906
3002 3003 3003 3004 3004 3005 3006 3007 3008 3008 3008 3009 3009 3009 3010 3010 3010 3010 3010 3010 3010 3010 3010 3010 3009 3009 3008 3008 3007 3007 3006 3006 3005 3004 3003 3001 3000 2999 2998 2996 2994 2993 2991 2990 2988 2987 2985 2984 2983 2981 2979 2978 2976 2974 2972 2970 2968 2965 2963 2961 2959 2956 2953 2951 2948 2946 2944 2941 2939 2937 2935 2933 2931 2929 2927 2925 2923 2921 2919 2917 2915 2913 2911 2909 2907 2904
3000 3001 3001 3002 3003 3004 3004 3005 3006 3006 3006 3007 3007 3008 3008 3008 3008 3008 3009 3009 3008 3008 3008 3008 3008 3007 3006 3005 3005 3005 3004 3004 3003 3002 3001 2999 2998 2997 2996 2994 2993 2991 2989 2988 2987 2985 2984 2983 2981 2979 2978 2976 2974 2972 2970 2968 2966 2964 2962 2959 2957 2954 2952 2949 2947 2944 2942 2940 2938 2935 2934 2932 2930 2928 2926 2924 2922 2920 2918 2916 2914 2912 2910 2908 2906 2904
2998 2999 2999 3000 3001 3002 3003 3003 3004 3004 3005 3005 3006 3006 3006 3006 3006 3007 3007 3007 3007 3007 3006 3006 3006 3005 3005 3004 3003 3003 3003 3002 3001 2999 2999 2997 2996 2995 2994 2993 2991 2989 2988 2987 2985 2984 2983 2981 2980 2978 2976 2974 2973 2971 2969 2967 2964 2962 2960 2958 2955 2953 2950 2948 2945 2943 2941 2939 2936 2934 2932 2931 2929 2927 2925 2923 2921 2919 2917 2915 2913 2911 2909 2907 2905 2903
2996 2997 2998 2999 2999 3000 3001 3001 3002 3003 3003 3004 3004 3004 3004 3004 3004 3005 3005 3005 3005 3005 3005 3004 3004 3004 3003 3002 3001 3001 3001 3000 2999 2997 2996 2995 2994 2993 2992 2991 2989 2988 2986 2985 2984 2983 2981 2980 2978 2977 2975 2973 2971 2969 2967 2965 2963 2961 2958 2956 2954 2951 2949 2946 2944 2941 2939 2937 2935 2933 2931 2930 2928 2926 2924 2922 2920 2919 2916 2914 2912 2910 2908 2906 2904 2902
2994 2995 2996 2997 2998 2999 2999 3000 3001 3001 3002 3002 3003 3003 3003 3003 3003 3003 3003 3003 3003 3003 3003 3003 3002 3001 3001 3000 3000 2999 2999 2998 2997 2995 2994 2993 2992 2991 2990 2989 2988 2986 2985 2984 2983 2981 2980 2978 2977 2975 2974 2972 2970 2968 2966 2964 2961 2959 2957 2954 2952 2949 2947 2944 2942 2940 2938 2936 2934 2932 2930 2929 2927 2925 2923 2921 2919 2918 2916 2914 2912 2909 2908 2905 2904 2902
2993 2994 2995 2996 2997 2998 2998 2999 2999 3000 3000 3001 3001 3001 3001 3001 3001 3001 3001 3001 3001 3001 3001 3001 3000 2999 2999 2999 2998 2997 2997 2996 2995 2993 2992 2991 2990 2989 2989 2988 2986 2985 2984 2982 2981 2980 2979 2977 2975 2974 2972 2970 2969 2967 2964 2962 2960 2958 2955 2953 2950 2948 2945 2943 2941 2939 2937 2935 2933 2931 2929 2928 2926 2924 2923 2921 2919 2917 2915 2913 2911 2909 2907 2905 2903 2901
2992 2993 2994 2995 2996 2997 2997 2998 2999 2999 2999 2999 2999 2999 2999 2999 2999 2999 2999 2999 2999 2999 2999 2999 2998 2998 2997 2997 2996 2996 2995 2994 2993 2991 2990 2989 2989 2988 2987 2986 2985 2984 2982 2981 2980 2979 2977 2976 2974 2972 2971 2969 2967 2965 2963 2961 2959 2956 2954 2951 2949 2946 2944 2942 2940 2938 2936 2934 2932 2930 2929 2927 2925 2924 2922 2920 2918 2916 2914 2912 2910 2909 2906 2904 2903 2901
2991 2992 2993 2994 2995 2995 2996 2997 2997 2997 2997 2997 2997 2997 2997 2997 2997 2997 2997 2998 2998 2997 2997 2996 2996 2996 2995 2995 2994 2994 2993 2992 2990 2989 2989 2988 2987 2986 2986 2984 2983 2982 2981 2980 2979 2977 2976 2974 2973 2971 2969 2968 2966 2964 2962 2959 2957 2954 2952 2949 2947 2945 2943 2940 2939 2937 2935 2933 2931 2930 2928 2926 2924 2923 2921 2919 2917 2915 2914 2912 2910 2908 2906 2904 2903 2901
2990 2991 2992 2993 2993 2994 2994 2995 2995 2995 2995 2995 2995 2995 2995 2995 2995 2995 2996 2996 2995 2995 2995 2994 2994 2994 2993 2993 2992 2991 2990 2989 2989 2988 2987 2987 2986 2985 2984 2983 2982 2981 2980 2979 2978 2976 2974 2973 2972 2970 2968 2967 2965 2963 2960 2958 2955 2953 2950 2948 2946 2944 2941 2939 2937 2936 2934 2932 2930 2929 2927 2926 2924 2922 2920 2919 2917 2915 2913 2911 2909 2908 2906 2904 2902 2900
2989 2990 2990 2991 2991 2992 2993 2993 2994 2994 2994 2993 2993 2994 2994 2994 2994 2994 2994 2994 2994 2993 2993 2992 2992 2992 2991 2991 2990 2989 2989 2988 2987 2986 2986 2985 2984 2984 2983 2982 2981 2980 2979 2978 2977 2975 2974 2972 2970 2969 2967 2965 2963 2961 2959 2956 2954 2951 2949 2947 2944 2942 2940 2938 2936 2935 2933 2931 2930 2928 2926 2925 2923 2921 2919 2918 2916 2914 2913 2911 2909 2908 2906 2904 2902 2900
2988 2988 2989 2989 2989 2990 2991 2991 2991 2991 2991 2991 2992 2992 2992 2992 2992 2992 2992 2992 2992 2991 2991 2990 2990 2990 2989 2989 2988 2987 2986 2986 2985 2985 2984 2984 2983 2982 2982 2981 2980 2979 2977 2976 2975 2974 2973 2971 2969 2968 2966 2964 2962 2960 2957 2955 2952 2950 2948 2945 2943 2941 2939 2937 2935 2934 2932 2931 2929 2928 2926 2924 2922 2920 2919 2917 2916 2914 2913 2911 2909 2907 2906 2904 2902 2900
2985 2986 2986 2987 2988 2988 2989 2989 2989 2989 2989 2990 2990 2990 2989 2990 2990 2990 2990 2990 2989 2989 2989 2988 2988 2988 2987 2987 2986 2985 2985 2984 2984 2984 2983 2982 2982 2981 2980 2979 2979 2978 2976 2975 2974 2973 2972 2970 2968 2966 2965 2963 2961 2958 2956 2953 2951 2949 2946 2944 2942 2940 2938 2936 2935 2933 2932 2930 2929 2927 2925 2924 2922 2920 2919 2917 2915 2914 2912 2911 2909 2907 2906 2904 2902 2900
2983 2984 2984 2985 2985 2986 2986 2987 2987 2988 2988 2988 2988 2988 2988 2988 2988 2988 2988 2988 2987 2987 2987 2986 2986 2986 2985 2985 2984 2984 2983 2983 2983 2982 2982 2981 2981 2980 2979 2978 2978 2977 2975 2974 2973 2972 2971 2969 2967 2965 2963 2961 2959 2957 2954 2952 2950 2947 2945 2943 2941 2939 2937 2935 2934 2933 2931 2929 2928 2926 2924 2923 2921 2919 2918 2917 2915 2914 2912 2911 2909 2907 2906 2904 2902 2900
2981 2981 2982 2982 2983 2984 2984 2985 2985 2986 2986 2986 2986 2986 2986 2986 2986 2986 2985 2985 2985 2985 2985 2984 2984 2984 2983 2983 2982 2982 2982 2982 2981 2981 2980 2980 2979 2979 2978 2977 2976 2975 2974 2973 2972 2970 2969 2968 2966 2964 2961 2959 2958 2955 2953 2951 2949 2946 2944 2942 2940 2938 2937 2935 2933 2932 2930 2929 2927 2925 2924 2922 2921 2919 2918 2916 2915 2914 2912 2911 2909 2907 2905 2904 2902 2900
2979 2979 2980 2980 2981 2982 2983 2983 2984 2984 2984 2984 2984 2984 2984 2984 2984 2984 2984 2984 2984 2983 2983 2983 2982 2982 2981 2981 2981 2981 2981 2981 2980 2980 2979 2979 2978 2978 2977 2976 2975 2974 2974 2972 2970 2969 2968 2967 2965 2963 2960 2958 2956 2954 2952 2949 2947 2945 2943 2941 2939 2938 2936 2934 2933 2931 2930 2928 2927 2925 2923 2922 2920 2919 2918 2916 2915 2914 2912 2911 2909 2907 2905 2904 2902 2900
2977 2978 2978 2979 2980 2981 2981 2982 2982 2982 2982 2982 2982 2982 2981 2982 2982 2982 2982 2982 2982 2981 2981 2981 2980 2980 2979 2979 2979 2980 2979 2979 2979 2979 2978 2978 2977 2977 2976 2975 2974 2973 2973 2972 2970 2968 2966 2965 2964 2962 2960 2957 2955 2952 2950 2948 2946 2944 2942 2940 2939 2937 2935 2934 2932 2931 2929 2928 2926 2924 2923 2921 2920 2919 2918 2916 2915 2914 2912 2911 2909 2907 2905 2904 2902 2900
2975 2976 2977 2978 2979 2979 2979 2980 2980 2980 2980 2979 2979 2979 2979 2980 2980 2980 2980 2980 2980 2979 2979 2979 2979 2978 2978 2978 2979 2979 2979 2978 2978 2977 2977 2976 2976 2975 2975 2974 2973 2972 2971 2970 2969 2968 2966 2964 2962 2960 2959 2957 2954 2951 2949 2947 2945 2944 2941 2939 2938 2936 2935 2934 2932 2930 2929 2927 2925 2924 2923 2921 2920 2919 2917 2916 2915 2914 2912 2911 2909 2907 2906 2904 2902 2901
2974 2974 2975 2976 2977 2977 2978 2978 2978 2978 2978 2977 2977 2977 2978 2978 2978 2978 2978 2978 2978 2978 2977 2977 2977 2977 2977 2977 2978 2978 2977 2977 2977 2976 2976 2975 2975 2974 2974 2973 2972 2971 2970 2969 2968 2967 2965 2963 2961 2959 2957 2955 2953 2951 2948 2946 2944 2943 2941 2939 2937 2936 2934 2933 2931 2930 2928 2927 2925 2924 2922 2921 2920 2919 2918 2916 2915 2914 2912 2911 2909 2908 2906 2904 2903 2901
2972 2973 2974 2974 2975 2975 2975 2976 2975 2975 2975 2975 2975 2976 2976 2976 2976 2976 2976 2976 2976 2976 2975 2975 2975 2976 2976 2976 2976 2976 2976 2976 2975 2975 2975 2974 2974 2973 2973 2972 2971 2970 2969 2968 2967 2965 2964 2962 2960 2958 2955 2953 2952 2950 2948 2945 2944 2942 2940 2939 2937 2935 2934 2932 2931 2929 2928 2926 2925 2924 2922 2921 2920 2919 2918 2917 2915 2914 2912 2911 2909 2908 2906 2904 2903 2901
2970 2971 2972 2972 2973 2973 2973 2973 2973 2973 2973 2974 2974 2974 2974 2974 2974 2974 2974 2974 2974 2974 2974 2974 2974 2974 2975 2975 2975 2975 2975 2975 2974 2974 2974 2974 2973 2972 2972 2971 2970 2969 2968 2967 2966 2964 2963 2961 2959 2957 2955 2952 2950 2949 2947 2945 2943 2941 2939 2938 2937 2935 2934 2932 2930 2929 2927 2926 2925 2924 2923 2921 2920 2919 2918 2917 2915 2914 2913 2911 2909 2908 2906 2905 2903 2901
2968 2969 2970 2970 2971 2971 2970 2971 2971 2971 2971 2972 2972 2972 2972 2972 2973 2973 2973 2972 2972 2972 2972 2973 2973 2973 2974 2974 2974 2974 2974 2974 2973 2973 2973 2972 2972 2971 2971 2970 2969 2968 2967 2966 2965 2964 2962 2960 2958 2956 2954 2952 2950 2948 2946 2944 2943 2941 2939 2938 2936 2934 2933 2932 2930 2929 2927 2926 2925 2924 2923 2922 2921 2919 2918 2917 2916 2914 2913 2911 2910 2908 2907 2905 2904 2902
2966 2967 2968 2968 2968 2968 2968 2969 2969 2969 2969 2969 2970 2970 2970 2970 2971 2971 2970 2970 2970 2970 2971 2971 2972 2972 2972 2972 2973 2973 2973 2973 2972 2972 2972 2971 2971 2970 2970 2969 2968 2967 2966 2965 2964 2962 2961 2959 2957 2955 2953 2951 2949 2947 2945 2943 2941 2940 2939 2938 2936 2934 2933 2931 2930 2929 2927 2926 2925 2924 2923 2922 2921 2920 2919 2917 2916 2914 2913 2912 2910 2909 2907 2906 2904 2902
2964 2965 2965 2966 2966 2966 2966 2967 2967 2967 2967 2968 2968 2968 2969 2969 2969 2969 2969 2969 2969 2969 2970 2970 2970 2971 2971 2971 2971 2972 2972 2971 2971 2971 2971 2970 2970 2969 2969 2968 2967 2966 2965 2964 2962 2961 2959 2958 2956 2954 2952 2950 2948 2946 2944 2943 2941 2939 2938 2937 2936 2934 2933 2931 2930 2929 2928 2927 2926 2924 2924 2922 2921 2920 2919 2917 2916 2914 2913 2912 2911 2909 2908 2906 2905 2903
2962 2963 2963 2964 2964 2964 2965 2965 2965 2965 2965 2966 2966 2966 2967 2967 2967 2967 2967 2967 2967 2968 2969 2969 2969 2969 2970 2970 2970 2971 2971 2970 2970 2970 2970 2969 2969 2969 2968 2967 2966 2965 2964 2963 2961 2960 2958 2956 2954 2953 2951 2949 2947 2945 2943 2942 2940 2939 2938 2936 2935 2934 2933 2931 2930 2929 2928 2927 2926 2925 2924 2923 2921 2920 2919 2918 2916 2915 2914 2913 2911 2910 2909 2907 2905 2904
2960 2961 2961 2962 2962 2963 2963 2963 2963 2964 2964 2964 2964 2964 2965 2965 2965 2965 2965 2965 2966 2967 2967 2968 2968 2969 2969 2969 2969 2969 2969 2969 2969 2969 2969 2968 2968 2967 2967 2966 2965 2964 2963 2962 2960 2959 2957 2955 2953 2951 2950 2948 2946 2944 2943 2941 2940 2939 2937 2936 2935 2934 2933 2931 2930 2929 2928 2927 2926 2925 2924 2923 2922 2920 2919 2918 2917 2916 2914 2913 2912 2910 2909 2908 2906 2904
2958 2959 2959 2959 2960 2961 2961 2961 2961 2962 2962 2962 2963 2963 2963 2963 2963 2963 2964 2964 2965 2966 2966 2967 2967 2968 2968 2968 2969 2969 2969 2968 2968 2968 2968 2967 2967 2966 2966 2965 2964 2963 2962 2961 2959 2958 2956 2954 2952 2950 2949 2947 2946 2944 2943 2941 2940 2939 2937 2936 2935 2934 2933 2932 2931 2929 2929 2928 2927 2925 2924 2923 2922 2921 2920 2919 2917 2916 2915 2914 2913 2911 2910 2908 2907 2905
2956 2957 2957 2958 2958 2959 2959 2959 2959 2960 2960 2961 2961 2961 2961 2961 2961 2962 2962 2963 2964 2965 2965 2966 2967 2967 2967 2968 2968 2968 2967 2967 2967 2967 2967 2966 2966 2965 2964 2964 2963 2962 2961 2959 2958 2957 2955 2954 2952 2950 2948 2947 2945 2944 2943 2941 2940 2939 2937 2936 2935 2934 2933 2932 2931 2930 2929 2928 2927 2926 2925 2924 2923 2921 2920 2919 2918 2917 2915 2914 2913 2912 2910 2909 2907 2906
2954 2954 2955 2956 2956 2957 2957 2958 2958 2958 2959 2959 2959 2959 2959 2959 2960 2960 2961 2962 2963 2964 2964 2965 2965 2966 2966 2966 2967 2967 2966 2966 2966 2966 2966 2965 2965 2964 2964 2963 2962 2961 2960 2959 2957 2955 2954 2953 2951 2950 2948 2946 2945 2944 2942 2941 2940 2938 2937 2936 2935 2934 2933 2932 2931 2930 2929 2929 2928 2926 2925 2924 2923 2922 2921 2919 2919 2917 2916 2915 2914 2913 2911 2910 2908 2907
2952 2953 2953 2954 2954 2955 2955 2956 2956 2956 2957 2957 2957 2958 2958 2958 2959 2959 2960 2961 2962 2963 2964 2964 2964 2965 2965 2965 2965 2965 2965 2965 2965 2965 2965 2964 2964 2963 2963 2962 2961 2960 2959 2958 2956 2954 2953 2952 2950 2949 2948 2946 2945 2943 2942 2941 2939 2938 2937 2936 2935 2934 2934 2933 2932 2931 2930 2929 2928 2927 2926 2924 2924 2922 2921 2920 2919 2918 2917 2916 2914 2913 2912 2910 2909 2908
2950 2951 2951 2952 2953 2953 2954 2954 2954 2954 2955 2955 2955 2956 2956 2957 2958 2959 2959 2961 2961 2962 2963 2963 2964 2964 2964 2964 2964 2964 2964 2964 2964 2964 2964 2963 2963 2962 2962 2961 2960 2959 2958 2957 2956 2954 2953 2951 2950 2949 2947 2946 2945 2943 2942 2940 2939 2938 2937 2936 2935 2934 2934 2933 2932 2931 2930 2929 2929 2927 2926 2925 2924 2923 2922 2921 2919 2919 2918 2916 2915 2914 2913 2911 2910 2909
2948 2949 2950 2950 2951 2951 2952 2952 2952 2953 2953 2954 2954 2954 2955 2956 2957 2958 2959 2960 2961 2961 2962 2963 2963 2963 2964 2964 2964 2964 2964 2964 2964 2963 2963 2962 2962 2961 2961 2960 2959 2958 2957 2956 2955 2954 2953 2952 2950 2949 2947 2946 2944 2943 2942 2940 2939 2938 2937 2936 2936 2935 2934 2934 2933 2932 2931 2930 2929 2928 2927 2926 2924 2923 2922 2921 2920 2919 2918 2917 2916 2915 2914 2912 2911 2910
2946 2947 2948 2949 2949 2949 2950 2950 2950 2951 2951 2952 2952 2953 2954 2955 2956 2957 2958 2959 2960 2960 2961 2962 2962 2962 2962 2962 2962 2962 2963 2963 2962 2962 2962 2962 2961 2961 2960 2959 2959 2958 2957 2955 2954 2953 2952 2951 2950 2948 2947 2945 2944 2942 2941 2940 2939 2938 2937 2937 2936 2935 2935 2934 2934 2933 2932 2931 2929 2929 2927 2926 2925 2924 2923 2922 2921 2920 2919 2918 2917 2916 2914 2913 2912 2911
2945 2946 2946 2947 2947 2948 2948 2948 2949 2949 2949 2950 2951 2952 2953 2954 2955 2956 2957 2958 2959 2960 2960 2961 2961 2961 2961 2961 2961 2962 2962 2962 2962 2961 2961 2961 2960 2960 2959 2959 2958 2957 2956 2955 2954 2953 2952 2950 2949 2948 2946 2945 2944 2942 2941 2940 2939 2939 2938 2937 2937 2936 2935 2935 2934 2933 2932 2931 2930 2929 2928 2927 2926 2924 2924 2923 2922 2921 2920 2919 2918 2917 2915 2914 2913 2912
2943 2944 2944 2945 2945 2946 2946 2946 2947 2947 2948 2949 2949 2951 2952 2953 2954 2956 2957 2957 2958 2959 2959 2960 2960 2960 2960 2960 2960 2961 2961 2961 2960 2960 2960 2960 2959 2959 2958 2958 2957 2956 2955 2954 2953 2952 2951 2950 2949 2947 2945 2944 2943 2942 2941 2940 2940 2939 2938 2938 2937 2937 2936 2935 2935 2934 2933 2932 2931 2930 2929 2927 2926 2925 2924 2924 2923 2922 2921 2920 2919 2918 2917 2915 2914 2914
2941 2942 2943 2943 2943 2944 2944 2945 2945 2946 2947 2948 2949 2950 2951 2953 2954 2955 2956 2957 2957 2958 2958 2959 2959 2959 2959 2959 2960 2960 2960 2960 2959 2959 2959 2959 2958 2958 2957 2957 2956 2955 2954 2954 2953 2951 2950 2949 2948 2946 2945 2944 2943 2942 2941 2940 2940 2939 2939 2938 2938 2937 2937 2936 2935 2935 2934 2933 2932 2930 2929 2928 2927 2926 2925 2924 2924 2923 2922 2921 2920 2919 2918 2917 2916 2915
2939 2940 2941 2941 2941 2942 2942 2943 2944 2944 2945 2947 2948 2949 2951 2952 2953 2954 2955 2956 2956 2957 2957 2957 2958 2958 2958 2959 2959 2959 2959 2959 2959 2959 2958 2958 2957 2957 2956 2956 2955 2954 2954 2953 2952 2951 2949 2948 2947 2945 2944 2944 2943 2942 2942 2941 2940 2940 2939 2939 2939 2938 2938 2937 2936 2935 2934 2934 2932 2931 2930 2929 2928 2927 2926 2925 2924 2924 2923 2922 2921 2920 2919 2918 2917 2916